Location: Old Broadwell Mill Observatory
(33.8015°N, 85.8137°W)
Time: 23:53:56
(UTC-05:00)

Amateur Radio Satellites - All Passes

Search period start: 15 September 2014 23:23
Search period end: 16 September 2014 23:23
Location: Old Broadwell Mill Observatory, 33.8015°N, 85.8137°W

Satellite Date Start Highest point End Downlink Frequencies (MHz)
Time Altitude Azimuth
FUNcube-1 15 Sep 23:33:35 23:35:56 14° 267° (W) 23:38:19 145.950 - 145.970 MHz USB
PCSat 15 Sep 23:40:32 23:45:09 29° 252° (WSW) 23:49:44 145.825 MHz
SO-50 16 Sep 00:13:56 00:17:27 22° 308° (NW) 00:21:02 436.795 FM
UOSAT-12 16 Sep 00:33:35 00:37:58 46° 114° (ESE) 00:42:26 437.025 FM, 437.400 FM
Oscar 19 16 Sep 00:59:50 01:01:37 12° 92° (E) 01:03:24 437.125 CW, 437.150 USB
JAS-1B 16 Sep 01:32:19 01:34:09 12° 91° (E) 01:35:58 435.800 - 435.900 CW/SSB
Oscar 16 16 Sep 01:35:31 01:40:04 31° 97° (E) 01:44:35 437.025 USB, Beacon 2401.1428
ITAMSAT 1 16 Sep 02:10:26 02:14:49 27° 97° (E) 02:19:10 435.822 SSB
UOSAT-12 16 Sep 02:15:12 02:18:21 18° 311° (NW) 02:21:32 437.025 FM, 437.400 FM
Uribyol 2 16 Sep 02:15:30 02:20:10 33° 98° (E) 02:24:49 436.500 FM
AO-Echo 16 Sep 02:21:22 02:25:55 41° 99° (E) 02:30:35 ?
Saudisat 1A 16 Sep 02:27:05 02:30:18 19° 51° (NE) 02:33:30 436.775 MHz
Oscar 19 16 Sep 02:36:13 02:41:20 64° 286° (WNW) 02:46:24 437.125 CW, 437.150 USB
AO-27 16 Sep 02:43:43 02:48:53 61° 101° (ESE) 02:54:02 436.795 MHz FM
PANSAT 16 Sep 02:56:52 02:59:45 20° 163° (SSE) 03:02:39 not established
Gurwin Techsat 1B 16 Sep 03:13:24 03:18:36 54° 100° (E) 03:23:46 435.225 FM
Oscar 16 16 Sep 03:15:01 03:19:15 26° 291° (WNW) 03:23:27 437.025 USB, Beacon 2401.1428
OPAL 16 Sep 03:18:58 03:21:38 14° 62° (ENE) 03:24:18 ?
JAS-1B 16 Sep 03:19:41 03:25:23 64° 287° (WNW) 03:31:01 435.800 - 435.900 CW/SSB
AO-7 16 Sep 03:48:39 03:54:42 22° 95° (E) 04:00:43 29.400 - 29.500 MHz
ITAMSAT 1 16 Sep 03:49:44 03:54:13 30° 291° (WNW) 03:58:42 435.822 SSB
ISS 16 Sep 03:50:07 03:53:24 63° 318° (NW) 03:56:43 145.800 FM
TMSAT-1 16 Sep 03:53:02 03:58:22 85° 284° (WNW) 04:03:40 436.925 FM
Uribyol 2 16 Sep 03:55:14 03:59:26 25° 292° (WNW) 04:03:38 436.500 FM
AO-Echo 16 Sep 04:01:11 04:04:22 18° 292° (WNW) 04:07:37 ?
Saudisat 1A 16 Sep 04:05:55 04:09:58 37° 247° (WSW) 04:14:00 436.775 MHz
KITSAT 1 16 Sep 04:20:51 04:27:31 27° 49° (NE) 04:34:07 435.175 FM
AO-27 16 Sep 04:25:13 04:27:50 14° 296° (WNW) 04:30:26 436.795 MHz FM
RS-15 16 Sep 04:32:56 04:43:56 68° 113° (ESE) 04:54:42 29.354 - 29.394 USB, Beacon 29.352 USB
PANSAT 16 Sep 04:36:00 04:39:31 35° 176° (S) 04:43:04 not established
OPAL 16 Sep 04:54:51 04:59:55 62° 257° (WSW) 05:05:05 ?
Gurwin Techsat 1B 16 Sep 04:54:54 04:58:04 16° 295° (WNW) 05:01:15 435.225 FM
Uosat F 16 Sep 05:06:14 05:11:17 84° 103° (ESE) 05:16:18 435.120 FM
STRAND 1 16 Sep 05:32:11 05:34:45 14° 64° (ENE) 05:37:19 ?
Hamsat 16 Sep 05:38:27 05:41:07 16° 94° (E) 05:43:45 145.90 MHz
AO-7 16 Sep 05:39:45 05:47:57 67° 290° (WNW) 05:56:07 29.400 - 29.500 MHz
Oscar 10/S400 16 Sep 05:44:32 06:03:29 11° 261° (W) 06:25:33 145.825 - 145.975 CW/USB, Beacon 145.810 USB
KITSAT 1 16 Sep 06:15:27 06:23:23 63° 248° (WSW) 06:31:17 435.175 FM
PANSAT 16 Sep 06:15:56 06:19:22 31° 189° (S) 06:22:48 not established
JAS-2 16 Sep 06:40:33 06:46:33 88° 104° (ESE) 06:53:22 435.800 - 435.900 CW/SSB, 435.910 FM
RS-15 16 Sep 06:47:31 06:57:00 32° 315° (NW) 07:06:29 29.354 - 29.394 USB, Beacon 29.352 USB
STRAND 1 16 Sep 07:08:24 07:13:23 58° 259° (W) 07:18:25 ?
SO-50 16 Sep 07:09:13 07:11:37 14° 47° (NE) 07:14:03 436.795 FM
Hamsat 16 Sep 07:13:19 07:17:07 32° 287° (WNW) 07:20:53 145.90 MHz
AO-7 16 Sep 07:36:27 07:39:11 12° 309° (NW) 07:41:54 29.400 - 29.500 MHz
PANSAT 16 Sep 07:56:49 07:59:04 15° 200° (SSW) 08:01:18 not established
SO-67 16 Sep 08:13:53 08:17:05 36° 285° (WNW) 08:20:16 435.3500 MHz FM
JAS-2 16 Sep 08:28:56 08:31:02 12° 296° (WNW) 08:33:12 435.800 - 435.900 CW/SSB, 435.910 FM
HO-68 16 Sep 08:45:09 08:50:55 26° 96° (E) 08:56:39 435.675 MHz FM
SO-50 16 Sep 08:47:51 08:52:40 72° 243° (WSW) 08:57:30 436.795 FM
MaSat-1 16 Sep 08:50:57 08:55:52 66° 110° (ESE) 09:00:53 437.345 MHz
UOSAT-12 16 Sep 09:07:55 09:10:53 16° 49° (NE) 09:13:49 437.025 FM, 437.400 FM
RS-15 16 Sep 09:12:27 09:14:33 11° 348° (NNW) 09:16:39 29.354 - 29.394 USB, Beacon 29.352 USB
FUNcube-1 16 Sep 09:50:44 09:52:09 11° 91° (E) 09:53:34 145.950 - 145.970 MHz USB
Oscar 11 16 Sep 10:08:36 10:12:50 49° 100° (E) 10:17:00 145.825 FM, Beacon 2401.500 USB
UKube-1 16 Sep 10:21:24 10:25:46 81° 284° (WNW) 10:30:07 145.840 MHz, 145.915 MHz
ISS 16 Sep 10:22:19 10:25:07 24° 35° (NE) 10:27:54 145.800 FM
MaSat-1 16 Sep 10:30:23 10:33:07 14° 305° (NW) 10:35:50 437.345 MHz
HO-68 16 Sep 10:31:55 10:38:47 51° 291° (WNW) 10:45:39 435.675 MHz FM
UOSAT-12 16 Sep 10:46:46 10:51:21 53° 245° (WSW) 10:55:51 437.025 FM, 437.400 FM
FUNcube-1 16 Sep 11:24:17 11:28:49 56° 285° (WNW) 11:33:17 145.950 - 145.970 MHz USB
RS-15 16 Sep 11:28:06 11:34:15 16° 28° (NNE) 11:40:27 29.354 - 29.394 USB, Beacon 29.352 USB
Oscar 11 16 Sep 11:46:49 11:48:32 12° 294° (WNW) 11:50:15 145.825 FM, Beacon 2401.500 USB
ISS 16 Sep 11:58:57 12:01:47 26° 230° (SW) 12:04:36 145.800 FM
Sapphire 16 Sep 12:07:37 12:12:21 32° 108° (ESE) 12:17:06 437.095 MHz 1200 baud AX-25 AFSK
JAS-1B 16 Sep 12:13:12 12:16:44 13° 61° (ENE) 12:20:03 435.800 - 435.900 CW/SSB
Oscar 19 16 Sep 12:13:14 12:15:27 13° 64° (ENE) 12:17:41 437.125 CW, 437.150 USB
PCSat 16 Sep 12:34:19 12:39:39 64° 113° (ESE) 12:45:01 145.825 MHz
Oscar 16 16 Sep 12:48:45 12:53:15 31° 70° (ENE) 12:57:47 437.025 USB, Beacon 2401.1428
ITAMSAT 1 16 Sep 13:24:53 13:29:13 28° 69° (ENE) 13:33:33 435.822 SSB
Uribyol 2 16 Sep 13:29:44 13:34:18 33° 70° (ENE) 13:38:54 436.500 FM
AO-Echo 16 Sep 13:30:56 13:35:15 34° 72° (ENE) 13:39:31 ?
TMSAT-1 16 Sep 13:34:49 13:35:58 11° 62° (ENE) 13:37:06 436.925 FM
RS-15 16 Sep 13:38:57 13:49:51 55° 55° (NE) 14:01:08 29.354 - 29.394 USB, Beacon 29.352 USB
Oscar 19 16 Sep 13:49:01 13:54:10 67° 258° (WSW) 13:59:21 437.125 CW, 437.150 USB
Sapphire 16 Sep 13:51:02 13:55:42 29° 304° (WNW) 14:00:23 437.095 MHz 1200 baud AX-25 AFSK
JAS-1B 16 Sep 13:57:15 14:06:24 76° 74° (ENE) 14:14:08 435.800 - 435.900 CW/SSB
AO-27 16 Sep 13:58:01 14:03:06 62° 74° (ENE) 14:08:13 436.795 MHz FM
PCSat 16 Sep 14:20:10 14:23:30 16° 309° (NW) 14:26:51 145.825 MHz
Oscar 16 16 Sep 14:28:16 14:32:32 26° 264° (W) 14:36:50 437.025 USB, Beacon 2401.1428
Gurwin Techsat 1B 16 Sep 14:30:36 14:35:47 58° 74° (ENE) 14:40:59 435.225 FM
AO-7 16 Sep 14:44:08 14:50:14 23° 58° (ENE) 14:56:18 29.400 - 29.500 MHz
ITAMSAT 1 16 Sep 15:04:10 15:08:35 28° 263° (W) 15:13:01 435.822 SSB
Oscar 10/S400 16 Sep 15:06:47 15:26:22 38° 150° (SSE) 15:45:59 145.825 - 145.975 CW/USB, Beacon 145.810 USB
Uribyol 2 16 Sep 15:09:41 15:13:46 24° 264° (W) 15:17:52 436.500 FM
TMSAT-1 16 Sep 15:09:51 15:15:08 81° 257° (WSW) 15:20:27 436.925 FM
AO-Echo 16 Sep 15:10:40 15:14:04 19° 265° (W) 15:17:27 ?
AO-27 16 Sep 15:40:58 15:42:58 12° 268° (W) 15:44:59 436.795 MHz FM
JAS-1B 16 Sep 15:50:59 15:57:06 20° 265° (W) 16:02:43 435.800 - 435.900 CW/SSB
RS-15 16 Sep 15:51:51 16:01:45 38° 253° (WSW) 16:12:05 29.354 - 29.394 USB, Beacon 29.352 USB
Gurwin Techsat 1B 16 Sep 16:13:23 16:16:03 14° 268° (W) 16:18:43 435.225 FM
Uosat F 16 Sep 16:15:35 16:20:33 77° 75° (ENE) 16:25:33 435.120 FM
Saudisat 1A 16 Sep 16:32:14 16:33:30 11° 107° (ESE) 16:34:46 436.775 MHz
AO-7 16 Sep 16:33:57 16:42:14 71° 255° (WSW) 16:50:32 29.400 - 29.500 MHz
JAS-2 16 Sep 16:51:21 16:55:14 21° 68° (ENE) 16:59:00 435.800 - 435.900 CW/SSB, 435.910 FM
OPAL 16 Sep 17:08:49 17:13:50 49° 102° (ESE) 17:18:45 ?
Hamsat 16 Sep 18:01:53 18:06:14 79° 258° (WSW) 18:10:37 145.90 MHz
Saudisat 1A 16 Sep 18:08:14 18:12:32 56° 301° (WNW) 18:16:53 436.775 MHz
JAS-2 16 Sep 18:35:04 18:40:07 37° 261° (W) 18:44:56 435.800 - 435.900 CW/SSB, 435.910 FM
SO-67 16 Sep 18:42:53 18:45:59 32° 74° (ENE) 18:49:06 435.3500 MHz FM
KITSAT 1 16 Sep 18:45:12 18:51:51 29° 105° (ESE) 18:58:29 435.175 FM
MaSat-1 16 Sep 18:48:50 18:52:33 53° 64° (ENE) 18:55:41 437.345 MHz
OPAL 16 Sep 18:48:57 18:52:15 17° 297° (WNW) 18:55:32 ?
HO-68 16 Sep 19:12:53 19:15:52 13° 57° (ENE) 19:18:51 435.675 MHz FM
STRAND 1 16 Sep 19:22:50 19:27:57 66° 102° (ESE) 19:33:02 ?
KITSAT 1 16 Sep 20:38:55 20:46:46 54° 302° (WNW) 20:54:40 435.175 FM
HO-68 16 Sep 20:55:20 21:02:28 82° 73° (ENE) 21:09:38 435.675 MHz FM
Oscar 11 16 Sep 21:00:19 21:03:49 24° 70° (ENE) 21:07:20 145.825 FM, Beacon 2401.500 USB
Sapphire 16 Sep 21:00:50 21:03:19 13° 49° (NE) 21:05:47 437.095 MHz 1200 baud AX-25 AFSK
STRAND 1 16 Sep 21:04:21 21:06:32 13° 296° (WNW) 21:08:42 ?
UKube-1 16 Sep 21:12:58 21:17:10 51° 74° (ENE) 21:21:22 145.840 MHz, 145.915 MHz
PCSat 16 Sep 21:26:52 21:31:10 23° 54° (NE) 21:35:27 145.825 MHz
FUNcube-1 16 Sep 22:16:30 22:20:48 72° 76° (ENE) 22:25:14 145.950 - 145.970 MHz USB
Oscar 11 16 Sep 22:36:22 22:39:52 24° 264° (W) 22:43:24 145.825 FM, Beacon 2401.500 USB
KITSAT 1 16 Sep 22:41:39 22:44:11 12° 324° (NW) 22:46:42 435.175 FM
Sapphire 16 Sep 22:41:57 22:47:24 83° 246° (WSW) 22:52:48 437.095 MHz 1200 baud AX-25 AFSK
HO-68 16 Sep 22:47:21 22:50:48 14° 268° (W) 22:54:16 435.675 MHz FM
UKube-1 16 Sep 22:52:41 22:53:36 11° 267° (W) 22:54:31 145.840 MHz, 145.915 MHz
SO-50 16 Sep 22:59:02 23:03:29 85° 299° (WNW) 23:08:03 436.795 FM
PCSat 16 Sep 23:09:38 23:14:42 41° 250° (WSW) 23:19:44 145.825 MHz
